sat.trackr.live / text

‹ back to catalog

CS2

NORAD 49262 · 2021-088C

PAYLOAD ACTIVE UNKNOWN

§ Identity

Operator
Country
US
Launch date
2021-09-27
Launch site
AFWTR
Launch vehicle
Mass (kg)
RCS (m²)

External: N2YO · Heavens-Above · Gunter

§ Orbital elements

Epoch: 2026-09-20T10:14:42.902880Z

Period
93.57 min
Inclination
97.3720°
Eccentricity
0.0010452
Mean motion
15.38953848 rev/d
Perigee alt
442.1 km
Apogee alt
456.3 km
Semi-major
6,827.3 km
B*
3.0821e-4
RAAN
329.5859°
Arg perigee
100.7302°
Mean anomaly
259.5121°
Rev number
27,515

§ Raw data

CS21 49262U 21088C   26263.42688545  .00011825  00000+0  30821-3 0  99962 49262  97.3720 329.5859 0010452 100.7302 259.5121 15.38953848275158

JSON: /api/v1/satellites/49262 · /tle

For live sub-satellite position, see the globe view (requires WebGL).

§ Visibility from observer

Set your observer location to see the next 7 days of passes ≥ 10°. The values pass through the URL so the page stays shareable.

No JS? Fill the form by hand. The geolocation button needs JavaScript.